Regional Weather Roundup
Issued by NWS

Home | Current Version | Previous Version | Graphics & Text | Print | Product List | Glossary On
Versions: 1 2 3 4 5 6 7 8 9 10 11 12 13 14 15 16 17 18 19 20 21 22 23 24 25 26 27 28 29 30 31 32 33 34 35 36 37 38 39 40 41 42 43 44 45 46 47 48 49 50
000
ASUS44 KMEG 280700
RWRTN
TENNESSEE HOURLY STATE WEATHER ROUNDUP
NATIONAL WEATHER SERVICE MEMPHIS TN
200 AM CDT SAT MAR 28 2015

TNZ002-004-019-021-049-052-054-088>092-280800-
WEST TENNESSEE

CITY           SKY/WX    TMP DP  RH WIND       PRES   REMARKS
MEMPHIS INTL   CLOUDY    39  21  48 NE8       30.19S WCI  33
NWS MEMPHIS      N/A     37 N/A N/A MISG        N/A
JACKSON        CLOUDY    32  23  69 NE5       30.19S WCI  27
DYERSBURG      CLOUDY    34  14  44 CALM      30.21S
UNION CITY     CLEAR     27  21  80 CALM      30.17F
PARIS          CLEAR     21  16  79 CALM      30.18S
LEXINGTON      CLEAR     30  18  59 N5        30.16F WCI  25
SAVANNAH       CLEAR     34  21  60 N6        30.18S WCI  29
$$

TNZ008-025-027-028-033-062-065-066-280800-
NORTH MIDDLE TENNESSEE

CITY           SKY/WX    TMP DP  RH WIND       PRES   REMARKS
NASHVILLE      MOCLDY    33  19  56 N5        30.15S WCI  29
CLARKSVILLE    CLEAR     30  21  69 N8        30.18R WCI  22
COOKEVILLE     CLOUDY    30  21  69 N5        30.09R WCI  25
CROSSVILLE     CLOUDY    30  17  58 NW14G21   30.04S WCI  19
$$

TNZ061-075-076-078-094-096-097-280800-
SOUTH MIDDLE TENNESSEE

CITY           SKY/WX    TMP DP  RH WIND       PRES   REMARKS
FAYETTEVILLE   CLEAR     30  23  74 N7        30.11S WCI  23
TULLAHOMA      CLEAR     28  21  74 N3        30.11S
WINCHESTER     PTCLDY    30  23  74 N5        30.11S WCI  25
COLUMBIA       CLEAR     30  30 100 CALM      30.14R
SHELBYVILLE    CLEAR     30  23  74 NW6       30.14S WCI  24
$$

TNZ017-018-042-046-047-280800-
NORTHEAST TENNESSEE

CITY           SKY/WX    TMP DP  RH WIND       PRES   REMARKS
TRI CITIES     CLOUDY    33  22  63 NW10G18   29.98R WCI  25
ELIZABETHTON   FLURRIES  30  21  69 NW6       29.96R WCI  24
$$

TNZ012-013-036-069-073-074-280800-
CENTRAL EAST TENNESSEE

CITY           SKY/WX    TMP DP  RH WIND       PRES   REMARKS
KNOXVILLE      FLURRIES  34  25  69 N10       30.05S WCI  26
OAK RIDGE      CLOUDY    35  21  56 NW9       30.08R WCI  28
GATLINBURG     CLOUDY    34  21  60 NW9       30.04R WCI  26
$$

TNZ083-085-099-280800-
SOUTHEAST TENNESSEE

CITY           SKY/WX    TMP DP  RH WIND       PRES   REMARKS
CHATTANOOGA    MOCLDY    37  25  61 NW10      30.09R WCI  30
$$

SKY/WX REPORTED AS FAIR MEANS FEW OR NO CLOUDS BELOW
12 THOUSAND FEET.



USA.gov is the U.S. government's official web portal to all federal, state and local government web resources and services.